Find CuPID

NORAD ID: 49264 Int'l Des: 2021-088 Owner: BU Country: US operational
LEOCIRCULARRETROGRADESSO

リアルタイム位置

3D地球を読み込み中...

CuPIDについて

説明を読み込み中...

次回通過

Passes for default location (London). Set your location on the main map for personalized predictions.

高度履歴

Loading altitude history...

軌道要素

1 49264U 21088E 26104.43519419 .00003918 00000-0 15920-3 0 9994
2 49264 97.3928 166.3997 0010793 291.0629 68.9454 15.25106605250469
Epoch: Apr 14, 2026 • Age: 14 hours

現在のステータス

高度 511.6 km
速度 7.61 km/s
衛星直下点 -76.03°S, 109.99°E
打ち上げ日 Sep 27, 2021
運用期間 4.5 years
タイプ other

技術仕様

分類 Payload
質量 10.00 kg
乾燥質量 10.00 kg
総質量 10.00 kg
長さ 0.30 m
直径 0.20 m
スパン 0.30 m
形状 Box
製造者 BU
バスタイプ Cubesat 6U
フェーズステータス In Orbit
所有者/国 BU/US

Most Searched